Mount Holly, NJ

6:09 PM EDT on July 26, 2017 (GMT -0400)
South Jersey Regional

Weather History for KVAY - April, 2014

Change the Weather History Date:

Sunday, April 20, 2014

  Actual Average (KPNE) Record (KPNE)
Temperature  
Mean Temperature 46 °F -  
Max Temperature 55 °F 63 °F 86 °F (2005)
Min Temperature 36 °F 41 °F 37 °F (1999)
Degree Days  
Heating Degree Days 20    
Moisture  
Dew Point 29 °F    
Average Humidity 50    
Maximum Humidity 76    
Minimum Humidity 34    
Precipitation  
Precipitation 0.00 in - - ()
Sea Level Pressure  
Sea Level Pressure 30.41 in    
Wind  
Wind Speed 6 mph (ENE)    
Max Wind Speed 13 mph    
Max Gust Speed 20 mph    
Visibility 10 miles    
Events      
Averages and records for this station are not official NWS values.
T = Trace of Precipitation, MM = Missing Value Source: NWS Daily Summary

Daily Weather History Graph

Daily Weather History Graph

Search for Another Location

Airport or City:

Trip Planner

Search our weather history database for the weather conditions in past years. The results will help you decide how hot, cold, wet, or windy it might be!

Date:

Astronomy

Apr. 20, 2014 Rise Set
Actual Time 6:14 AM EDT 7:42 PM EDT
Civil Twilight 5:46 AM EDT 8:11 PM EDT
Nautical Twilight 5:11 AM EDT 8:45 PM EDT
Astronomical Twilight 4:35 AM EDT 9:21 PM EDT
Moon 12:20 AM EDT (4/20) 10:32 AM EDT (4/20)
Length of Visible Light 14h 25m
Length of Day
13h 28m
Waning Gibbous, 69% of the Moon is Illuminated
Apr 20
Waning Gibbous
Apr 22
Last Quarter
Apr 29
New
May 6
First Quarter
May 14
Full

Hourly Weather History & Observations

Time (EDT) Temp. Windchill Dew Point Humidity Pressure Visibility Wind Dir Wind Speed Gust Speed Precip Events Conditions
12:54 AM 43.0 °F - 36.0 °F 76% 30.34 in 10.0 mi Calm Calm - N/A   Clear
1:54 AM 44.1 °F 42.5 °F 35.1 °F 71% 30.36 in 10.0 mi ENE 3.5 mph - N/A   Clear
2:54 AM 44.1 °F 42.5 °F 34.0 °F 68% 30.36 in 10.0 mi North 3.5 mph - N/A   Clear
3:54 AM 45.0 °F 42.6 °F 30.9 °F 58% 30.36 in 10.0 mi North 4.6 mph - N/A   Clear
4:54 AM 46.0 °F 42.5 °F 30.0 °F 54% 30.37 in 10.0 mi NNE 6.9 mph - N/A   Clear
5:54 AM 46.9 °F - 35.1 °F 63% 30.40 in 10.0 mi East 9.2 mph 18.4 mph N/A   Clear
6:54 AM 46.0 °F 41.0 °F 33.1 °F 61% 30.43 in 10.0 mi East 10.4 mph - N/A   Clear
7:54 AM 46.9 °F - 30.0 °F 52% 30.45 in 10.0 mi ENE 11.5 mph - N/A   Clear
8:54 AM 48.0 °F - 28.9 °F 48% 30.46 in 10.0 mi East 10.4 mph 19.6 mph N/A   Clear
9:54 AM 48.9 °F - 28.9 °F 46% 30.48 in 10.0 mi East 11.5 mph 17.3 mph N/A   Clear
10:54 AM 50.0 °F - 28.9 °F 44% 30.48 in 10.0 mi East 11.5 mph - N/A   Clear
11:54 AM 52.0 °F - 28.0 °F 40% 30.49 in 10.0 mi ENE 12.7 mph 19.6 mph N/A   Clear
12:54 PM 53.1 °F - 28.0 °F 38% 30.47 in 10.0 mi East 12.7 mph 19.6 mph N/A   Clear
1:54 PM 54.0 °F - 28.9 °F 38% 30.45 in 10.0 mi ENE 9.2 mph 17.3 mph N/A   Clear
2:54 PM 53.1 °F - 27.0 °F 37% 30.43 in 10.0 mi ENE 9.2 mph 16.1 mph N/A   Clear
3:54 PM 54.0 °F - 27.0 °F 35% 30.42 in 10.0 mi East 8.1 mph - N/A   Clear
4:54 PM 53.1 °F - 27.0 °F 37% 30.41 in 10.0 mi East 12.7 mph 17.3 mph N/A   Clear
5:54 PM 52.0 °F - 27.0 °F 38% 30.41 in 10.0 mi East 8.1 mph - N/A   Clear
7:54 PM 46.0 °F 42.5 °F 19.0 °F 34% 30.39 in 10.0 mi East 6.9 mph - N/A   Clear
8:54 PM 43.0 °F - 21.9 °F 43% 30.38 in 10.0 mi Calm Calm - N/A   Clear
9:54 PM 41.0 °F 39.0 °F 24.1 °F 51% 30.37 in 10.0 mi NE 3.5 mph - N/A   Clear
10:54 PM 37.9 °F - 26.1 °F 62% 30.35 in 10.0 mi Calm Calm - N/A   Clear
11:54 PM 36.0 °F - 26.1 °F 67% 30.33 in 10.0 mi Calm Calm - N/A   Clear